User: anonymous   Login
Location: Bovenkerk
(52.2915°N, 4.8336°E)
Time: 20:33:38
(UTC+00:00)
Language:

Cosmos 1864 Rocket - Orbit

View from above orbital plane
View from above orbital plane
View from above satellite
View from above satellite

Ground track
Ground track

The orbit data is extracted from the following two-line orbital elements,

1 18161U 87057B   20185.48278498  .00000050  00000-0  34676-4 0  9995
2 18161  82.9342 324.1323 0032617  81.3840 342.7345 13.77053505637301
Epoch (UTC): 03 July 2020 11:35:12
Eccentricity: 0.0032617
inclination: 82.9342°
perigee height: 950 km
apogee height: 998 km
right ascension of ascending node: 324.1323°
argument of perigee: 81.3840°
revolutions per day: 13.77053505
mean anomaly at epoch: 342.7345°
orbit number at epoch: 63730

The dashed part of the orbit path shows where the satellite is in the earth's shadow,  

DLR